Wetbulb
74.69 74.48 72.93 72.60 73.27 72.53 72.40 72.09 71.42 69.63 71.71 71.09 70.61 71.68 71.92 72.14 72.38 71.15 70.82 71.29 71.21 71.28 71.04 70.22 70.04 70.86 71.08 70.63 69.75 69.10 67.40 66.49 64.59 65.57 65.80 65.80 67.07 68.68 69.64 70.88 71.90 71.82 71.73
73.58 73.39 72.87 73.50 71.67 71.35 70.19 70.67 70.79 70.39 68.47 67.64 68.12 67.60 67.47 68.77 70.80 70.87 70.75 70.87 70.77 70.33 70.91 70.64 70.78 71.71 69.32 70.04 69.57 68.62 67.45 67.34 66.42 65.04 66.56 66.42 66.25 68.72 70.82 70.48 72.25 73.26 72.30
72.60 72.14 70.42 68.36 66.51 66.65 66.81 67.10 67.94 67.76 68.05 68.05 67.67 66.97 66.98 67.71 66.93 67.50 69.41 69.83 69.83 70.39 70.53 70.24 70.02 69.70 69.57 69.93 68.67 68.01 69.59 69.25 67.45 66.06 65.81 68.34 68.80 69.16 70.33 71.34 71.45 70.72 72.21
66.64 66.39 66.18 66.55 66.65 66.46 66.50 66.67 66.60 66.68 66.10 66.63 66.85 66.61 66.32 66.53 67.22 67.10 66.86 66.67 67.51 69.45 69.80 70.35 69.87 69.69 69.29 69.63 70.27 69.77 69.23 68.74 68.62 68.33 67.25 67.52 68.00 69.73 70.37 68.35 66.69 70.45 70.40
63.75 64.82 64.78 65.24 65.64 65.61 65.68 66.23 66.58 66.32 66.33 65.95 65.31 65.17 65.18 66.59 68.17 65.78 65.28 65.07 65.89 66.25 67.34 69.29 69.85 70.88 70.72 69.41 70.27 69.61 67.27 66.73 68.06 67.99 67.16 66.71 67.02 67.20 67.77 69.16 68.68 69.80 69.45
62.78 63.81 64.06 64.03 64.58 64.66 65.01 64.75 64.43 64.20 64.85 65.36 65.40 65.40 65.69 66.96 66.03 66.23 67.42 64.93 64.18 64.61 64.83 66.07 67.65 70.39 70.06 68.95 68.06 68.33 68.39 64.65 65.39 67.56 67.45 66.62 66.99 67.30 68.06 67.74 67.47 66.10 65.14
62.64 62.90 63.35 64.26 63.97 63.99 64.52 64.33 64.38 64.47 64.16 63.69 63.89 64.11 64.19 65.13 65.02 65.37 66.92 66.30 64.46 63.73 63.71 64.67 65.91 68.85 69.00 68.95 67.79 67.09 67.45 67.07 67.87 69.09 67.81 67.92 67.71 68.39 69.13 68.57 66.93 66.50 66.15
61.67 62.36 63.00 63.26 63.33 63.57 63.59 63.19 62.59 62.89 62.68 62.29 62.14 62.64 62.79 64.21 63.63 63.76 65.29 65.69 64.64 63.85 64.39 64.81 64.80 65.70 67.03 67.83 67.86 67.61 68.53 69.09 67.72 68.60 69.75 69.91 70.35 70.95 70.06 69.85 68.82 68.31 68.60
60.44 60.55 60.92 61.50 61.42 61.66 61.38 61.16 61.57 61.56 61.11 60.90 61.39 61.27 61.50 62.70 61.98 61.91 62.91 64.49 64.59 63.50 64.52 64.59 65.06 65.21 64.59 64.94 67.05 67.07 66.94 67.30 67.07 64.50 65.61 66.29 66.07 66.11 68.64 67.94 67.70 66.66 66.55
58.28 59.73 60.50 60.54 60.27 60.34 60.39 59.95 60.28 60.00 60.45 61.24 61.27 61.92 61.98 62.41 61.30 60.25 61.04 63.39 63.12 63.56 62.73 62.19 62.66 63.26 61.48 61.20 65.13 66.57 65.62 66.29 65.95 67.23 67.59 64.73 64.59 66.82 65.47 68.74 69.79 67.49 65.89
56.15 57.48 58.62 58.96 58.84 59.14 58.44 58.12 57.86 57.98 58.76 58.84 59.50 60.09 60.24 60.53 61.38 59.23 59.11 61.75 62.53 62.45 61.81 61.24 60.89 60.05 58.11 56.97 57.32 63.48 65.09 65.90 65.95 66.40 65.80 65.85 67.20 68.04 67.99 67.09 68.06 69.48 67.74
54.45 54.75 54.34 55.29 56.70 57.21 55.82 55.60 55.82 55.52 55.72 56.52 57.23 58.48 59.31 59.85 59.44 59.39 58.22 57.81 59.88 60.57 60.71 60.58 59.95 57.24 55.17 55.37 56.72 57.98 57.63 60.14 65.62 64.85 63.70 63.81 64.01 65.51 66.95 68.85 68.67 68.69 70.44
50.51 50.36 50.88 51.55 52.26 53.52 53.13 52.06 51.69 52.33 52.93 53.91 55.31 56.62 57.11 59.00 58.93 57.85 57.15 57.61 57.88 58.92 59.73 58.82 57.60 55.40 53.96 55.24 57.40 58.23 58.06 59.44 61.45 61.35 62.27 63.18 64.05 64.33 64.35 64.95 66.39 68.69 69.90
48.62 48.85 49.43 49.23 49.49 49.98 50.54 51.04 51.08 51.22 51.01 51.74 52.38 53.49 54.36 56.76 56.26 57.10 58.75 58.63 57.36 58.76 58.57 58.41 58.15 57.24 57.23 58.24 58.99 60.11 60.76 60.74 61.40 62.02 62.57 63.27 62.20 60.85 61.54 63.21 63.55 64.30 65.75
48.32 48.10 47.30 47.55 47.22 47.74 48.67 49.86 50.08 50.94 50.76 50.38 50.32 51.31 50.21 50.39 52.86 52.24 51.61 55.05 56.91 54.37 53.25 52.84 54.34 55.52 56.40 58.14 59.40 60.74 61.33 61.19 61.39 62.58 62.44 62.15 61.60 61.40 62.16 63.39 65.44 64.96 65.01
45.88 46.22 47.05 47.45 47.62 47.50 47.55 48.18 49.00 48.33 47.93 46.64 46.08 47.54 50.49 49.26 48.18 46.42 44.44 44.23 44.86 46.05 50.69 51.34 52.01 52.89 54.02 55.19 56.32 57.15 59.91 61.47 61.93 62.31 62.39 62.56 62.11 61.68 61.81 61.70 63.80 64.38 65.08
44.91 45.84 47.05 47.14 46.72 46.75 47.33 46.87 46.06 48.52 47.57 46.09 44.90 44.85 45.04 45.58 44.34 43.48 43.06 43.30 43.67 46.35 50.47 50.80 51.02 52.36 53.83 54.97 55.58 56.24 56.85 59.42 62.46 63.00 62.84 62.74 62.88 63.02 62.19 62.32 63.00 63.84 64.72
45.75 48.25 45.94 46.07 46.16 46.18 45.72 45.99 46.23 46.73 46.24 46.39 47.75 46.87 45.84 43.70 43.69 43.45 43.11 43.67 49.04 47.19 48.07 49.51 50.99 52.93 54.40 55.17 55.82 56.03 56.57 57.38 59.74 62.43 62.84 63.12 63.15 63.35 63.10 63.78 64.49 64.78 64.40
45.87 45.00 45.32 45.31 44.99 45.41 44.46 44.73 44.22 43.54 43.87 44.97 44.50 45.16 45.67 43.09 43.04 42.94 43.45 47.76 49.77 50.96 52.82 53.27 53.80 54.28 54.38 55.41 56.14 56.56 56.89 57.26 58.04 60.92 62.06 62.59 62.65 62.88 62.49 62.73 62.70 57.70 60.26
44.09 47.33 46.62 44.05 42.94 43.03 43.29 42.95 42.51 41.97 42.05 42.70 42.61 44.05 44.97 44.13 43.49 43.40 46.26 48.88 49.95 50.81 52.00 53.04 54.80 57.10 57.72 57.32 57.34 57.32 57.26 57.47 58.07 59.06 61.02 62.57 63.21 62.86 62.51 62.91 63.40 63.11 63.12
43.43 42.38 46.45 43.54 44.05 43.66 43.17 42.24 41.88 40.95 39.63 39.88 40.12 42.52 43.02 43.11 42.01 42.47 45.49 46.87 48.18 49.32 50.85 52.78 54.78 55.99 56.86 57.49 57.94 57.98 58.05 58.50 58.68 58.65 59.25 60.39 62.31 62.18 63.01 63.51 63.70 64.07 64.47
41.96 41.78 43.08 43.25 43.89 43.86 43.38 43.36 42.07 40.45 39.12 38.56 39.19 40.85 42.00 41.67 41.81 43.95 43.90 45.43 48.18 50.71 52.64 55.74 56.48 57.78 58.37 58.77 58.88 59.15 58.69 58.44 59.20 59.51 59.50 60.44 61.34 62.42 62.94 62.66 63.55 63.65 63.97
41.84 41.87 42.28 43.26 44.37 44.76 43.77 43.12 41.94 40.41 39.14 38.51 38.63 39.16 40.15 40.99 42.29 43.56 45.27 47.08 49.02 50.16 52.84 53.53 54.34 54.67 57.78 60.97 61.16 60.87 59.95 59.97 60.24 60.80 60.86 61.12 61.66 62.00 62.36 62.26 62.84 63.19 63.65
41.65 41.58 41.53 42.69 44.12 44.41 43.83 43.11 42.37 40.64 39.58 38.92 38.64 39.36 40.16 41.49 42.28 43.33 45.14 46.42 46.92 49.51 50.39 50.34 52.89 54.80 54.83 56.15 58.72 61.83 61.73 61.62 61.82 61.80 61.30 61.53 61.53 59.78 61.87 61.97 62.29 62.76 63.17
41.17 41.16 41.42 43.54 44.14 44.15 43.71 43.02 42.34 41.27 40.23 39.55 38.71 38.87 39.41 40.34 41.35 42.66 43.94 44.94 46.86 47.02 47.34 50.26 49.88 52.57 52.08 54.66 56.24 56.74 55.58 46.91 55.23 55.23 61.71 62.12 61.25 61.71 61.92 61.78 61.85 62.35 62.31
41.63 41.59 41.66 43.71 44.34 44.20 43.36 42.59 41.89 41.22 40.27 40.02 39.48 39.03 39.65 40.26 40.92 41.50 42.11 43.19 43.76 44.91 45.59 46.67 47.90 48.49 50.53 51.95 52.93 49.79 40.03 39.63 45.05 40.93 57.20 61.51 61.14 61.47 61.56 61.66 61.56 61.86 61.32
MSLP
1010.18 1011.10 1011.82 1012.07 1012.41 1012.82 1013.30 1013.49 1013.83 1014.19 1014.46 1014.47 1014.37 1014.28 1014.25 1014.25 1014.02 1013.93 1013.83 1013.86 1013.95 1013.84 1013.87 1013.85 1013.66 1013.56 1013.71 1013.88 1014.12 1014.65 1015.02 1015.32 1015.28 1014.32 1013.91 1013.30 1013.20 1012.78 1012.72 1012.36 1012.36 1012.50 1012.48
1010.21 1010.87 1011.61 1011.94 1012.47 1012.81 1013.34 1013.54 1013.89 1014.22 1014.34 1014.40 1014.37 1014.20 1014.00 1013.92 1013.81 1013.71 1013.62 1013.51 1013.51 1013.45 1013.26 1013.33 1013.27 1013.27 1013.19 1013.18 1013.69 1013.65 1014.82 1014.71 1014.69 1014.16 1013.59 1013.43 1013.35 1013.05 1012.86 1012.24 1011.82 1011.51 1011.78
1010.46 1011.24 1011.98 1012.42 1012.91 1013.21 1013.32 1013.45 1013.84 1014.10 1014.31 1014.38 1014.36 1014.23 1014.03 1013.85 1013.78 1013.70 1013.59 1013.38 1013.20 1013.05 1013.02 1013.15 1013.01 1012.98 1012.76 1012.73 1012.93 1013.58 1013.44 1013.64 1014.36 1013.97 1013.27 1012.99 1012.94 1012.77 1012.28 1012.30 1011.81 1011.67 1011.44
1011.22 1011.81 1012.42 1013.01 1013.21 1013.38 1013.54 1013.54 1013.84 1014.10 1014.21 1014.18 1014.15 1014.10 1013.98 1013.79 1013.60 1013.36 1013.20 1013.03 1012.82 1012.64 1012.68 1012.82 1012.70 1012.59 1012.39 1012.23 1012.15 1012.12 1012.71 1013.20 1013.05 1013.12 1013.17 1012.66 1012.68 1012.19 1012.11 1011.74 1011.56 1011.34 1011.71
1011.14 1012.17 1012.99 1013.22 1013.13 1013.27 1013.43 1013.39 1013.51 1013.77 1013.91 1013.94 1013.94 1013.74 1013.49 1013.38 1013.22 1013.04 1012.84 1012.69 1012.60 1012.47 1012.35 1012.39 1012.34 1012.13 1011.89 1011.61 1011.59 1011.32 1011.65 1011.94 1012.42 1012.39 1012.17 1012.21 1012.11 1012.02 1011.90 1011.83 1012.07 1011.93 1011.45
1012.33 1012.87 1012.86 1012.92 1012.89 1012.82 1012.95 1013.06 1013.33 1013.68 1013.83 1013.79 1013.78 1013.74 1013.52 1013.12 1012.69 1012.48 1012.34 1012.24 1012.11 1012.11 1012.02 1011.80 1011.80 1011.70 1011.48 1011.18 1010.91 1010.78 1010.65 1011.00 1010.90 1011.82 1011.65 1011.42 1011.08 1011.25 1011.42 1011.70 1011.85 1012.06 1012.03
1012.38 1012.55 1012.91 1012.81 1012.70 1012.57 1012.60 1012.81 1013.11 1013.35 1013.51 1013.59 1013.54 1013.44 1013.22 1012.85 1012.43 1011.97 1011.63 1011.53 1011.43 1011.39 1011.36 1011.25 1011.13 1010.98 1010.82 1010.68 1010.45 1010.26 1010.13 1010.02 1010.05 1010.68 1010.52 1010.22 1009.97 1010.19 1010.69 1010.87 1011.28 1011.29 1011.28
1012.95 1013.74 1013.57 1013.10 1012.89 1012.83 1012.96 1013.06 1013.14 1013.16 1013.26 1013.27 1013.17 1013.00 1012.73 1012.28 1011.91 1011.58 1011.14 1010.80 1010.63 1010.51 1010.42 1010.39 1010.41 1010.34 1010.30 1010.14 1009.93 1009.97 1009.89 1009.74 1009.87 1010.03 1009.68 1009.29 1009.10 1009.12 1009.35 1009.58 1010.01 1010.34 1010.23
1014.77 1014.50 1013.76 1013.61 1013.36 1013.47 1013.45 1013.45 1013.35 1013.35 1013.34 1013.14 1012.85 1012.62 1012.31 1011.71 1011.23 1010.94 1010.73 1010.36 1009.87 1009.69 1009.50 1009.50 1009.59 1009.59 1009.46 1009.42 1009.42 1009.33 1009.25 1009.14 1008.75 1008.69 1008.69 1008.66 1008.63 1008.63 1008.72 1009.24 1009.42 1009.77 1009.74
1015.56 1014.83 1014.32 1013.94 1014.00 1013.95 1013.86 1013.77 1013.56 1013.46 1013.28 1012.92 1012.54 1012.17 1011.72 1011.17 1010.64 1010.27 1010.06 1009.94 1009.50 1009.04 1008.78 1008.80 1008.78 1008.79 1008.60 1008.63 1008.89 1008.81 1008.69 1008.27 1008.25 1008.24 1008.26 1008.24 1008.06 1008.03 1008.02 1008.39 1008.54 1008.77 1008.88
1015.32 1014.75 1014.69 1014.60 1014.50 1014.17 1014.00 1013.86 1013.70 1013.49 1013.13 1012.73 1012.22 1011.67 1011.14 1010.62 1010.11 1009.68 1009.31 1009.12 1008.81 1008.44 1008.24 1008.15 1008.00 1007.99 1007.94 1007.90 1008.05 1008.27 1008.05 1007.56 1007.48 1007.47 1007.57 1007.58 1007.50 1007.38 1007.35 1007.41 1007.72 1007.86 1007.84
1015.68 1015.51 1015.47 1015.30 1015.03 1014.59 1014.34 1014.03 1013.68 1013.33 1012.86 1012.33 1011.79 1011.24 1010.69 1010.20 1009.73 1009.23 1008.64 1008.05 1007.87 1007.94 1007.74 1007.67 1007.73 1007.66 1007.60 1007.45 1007.31 1007.14 1007.16 1007.10 1007.13 1006.97 1007.04 1007.09 1007.08 1006.94 1006.86 1006.87 1006.80 1006.87 1006.59
1016.38 1016.37 1016.25 1015.81 1015.31 1014.82 1014.50 1014.14 1013.72 1013.20 1012.59 1011.99 1011.42 1010.78 1010.22 1009.72 1009.35 1008.79 1008.25 1007.57 1007.32 1007.46 1007.26 1007.16 1007.15 1007.15 1007.00 1006.98 1006.69 1006.43 1006.33 1006.63 1006.57 1006.73 1006.59 1006.40 1006.30 1006.09 1006.16 1006.32 1006.24 1006.15 1006.20
1016.98 1016.78 1016.31 1015.82 1015.30 1014.61 1014.18 1013.85 1013.39 1012.88 1012.35 1011.88 1011.38 1010.68 1009.98 1009.45 1008.96 1008.52 1008.16 1007.92 1007.51 1007.20 1007.02 1006.91 1006.84 1006.75 1006.66 1006.41 1006.15 1005.91 1005.75 1005.73 1005.72 1005.68 1005.55 1005.41 1005.44 1005.63 1005.56 1005.47 1005.56 1005.53 1005.59
1016.97 1016.60 1016.09 1015.58 1015.00 1014.42 1013.83 1013.26 1012.75 1012.22 1011.92 1011.52 1011.02 1010.46 1009.93 1009.44 1008.89 1008.50 1008.44 1007.95 1007.45 1007.24 1007.23 1006.93 1006.65 1006.36 1006.15 1005.89 1005.54 1005.32 1005.01 1004.94 1004.98 1004.87 1004.91 1004.88 1004.93 1004.90 1004.70 1004.67 1004.76 1004.82 1004.78
1016.63 1016.33 1015.92 1015.43 1014.84 1014.09 1013.37 1012.47 1011.96 1011.32 1010.75 1010.45 1010.17 1009.85 1009.08 1008.65 1008.36 1008.01 1007.64 1007.44 1007.21 1007.17 1007.07 1006.62 1006.19 1005.92 1005.66 1005.26 1004.88 1004.56 1004.32 1004.17 1003.87 1003.82 1003.94 1004.02 1004.06 1004.05 1003.94 1003.98 1003.98 1003.98 1003.84
1016.34 1016.05 1015.65 1015.11 1014.54 1013.84 1013.12 1012.38 1011.41 1010.49 1010.02 1009.53 1009.10 1008.70 1008.26 1007.99 1007.64 1007.29 1007.13 1006.87 1006.64 1006.70 1006.38 1006.01 1005.68 1005.22 1004.66 1004.26 1003.92 1003.63 1003.31 1002.94 1002.63 1002.86 1002.77 1002.86 1002.92 1002.96 1003.05 1003.09 1003.14 1003.07 1002.89
1016.03 1015.75 1015.40 1014.87 1014.15 1013.45 1012.84 1012.14 1011.37 1010.34 1009.19 1008.56 1008.25 1007.85 1007.55 1007.35 1007.11 1006.77 1006.32 1006.24 1005.86 1005.78 1005.46 1004.98 1004.43 1003.85 1003.38 1003.06 1002.76 1002.47 1002.11 1001.89 1001.78 1001.76 1001.75 1001.77 1001.80 1001.90 1001.95 1001.94 1001.98 1002.02 1002.03
1015.76 1015.45 1015.06 1014.52 1013.89 1013.35 1012.75 1011.95 1011.15 1010.28 1009.40 1008.48 1007.85 1007.36 1007.05 1006.72 1006.40 1006.07 1005.78 1005.42 1004.77 1004.36 1003.97 1003.54 1003.06 1002.54 1002.15 1001.88 1001.60 1001.36 1001.16 1000.94 1000.82 1000.74 1000.76 1000.81 1000.79 1000.95 1000.94 1000.89 1000.99 1001.04 1001.09
1015.34 1014.89 1014.51 1014.17 1013.64 1012.94 1012.21 1011.44 1010.74 1010.09 1009.29 1008.27 1007.64 1006.69 1006.24 1006.01 1005.84 1005.49 1004.99 1004.36 1003.87 1003.37 1002.93 1002.50 1001.88 1001.29 1000.77 1000.53 1000.39 1000.31 1000.21 1000.07 999.93 999.82 999.84 999.82 999.86 999.95 1000.01 1000.07 1000.11 1000.18 1000.23
1014.93 1014.70 1014.30 1013.73 1012.94 1012.28 1011.69 1011.09 1010.53 1009.92 1009.26 1008.27 1007.45 1006.63 1006.10 1005.60 1005.21 1004.72 1004.19 1003.66 1003.14 1002.69 1002.21 1001.55 1000.79 1000.28 999.89 999.60 999.33 999.19 999.13 998.97 998.85 998.79 998.77 998.79 998.89 999.02 999.07 999.15 999.21 999.20 999.29
1014.68 1014.38 1013.85 1013.16 1012.48 1011.81 1011.19 1010.59 1009.98 1009.40 1008.76 1007.95 1006.96 1006.16 1005.53 1005.15 1004.55 1003.83 1003.37 1002.88 1002.27 1001.70 1001.11 1000.24 999.75 999.27 998.77 998.44 998.21 998.07 997.92 997.74 997.65 997.68 997.72 997.81 997.90 997.95 998.06 998.21 998.28 998.35 998.46
1014.14 1013.85 1013.37 1012.66 1012.10 1011.36 1010.60 1009.97 1009.28 1008.68 1008.03 1007.33 1006.52 1005.69 1005.03 1004.42 1003.87 1003.31 1002.66 1002.06 1001.50 1001.00 1000.30 999.90 999.42 998.97 998.27 997.49 996.98 996.77 996.65 996.47 996.32 996.40 996.55 996.66 996.78 996.88 997.00 997.13 997.26 997.43 997.62
1013.56 1013.41 1013.00 1012.41 1011.67 1010.94 1010.09 1009.20 1008.43 1007.81 1007.21 1006.55 1005.87 1005.16 1004.51 1003.85 1003.21 1002.60 1001.95 1001.38 1000.98 1000.27 999.88 999.58 998.88 998.17 997.69 997.18 996.58 995.77 995.62 995.40 995.39 995.38 995.34 995.44 995.58 995.73 995.92 996.14 996.24 996.44 996.64
1013.23 1013.10 1012.72 1012.18 1011.40 1010.42 1009.43 1008.58 1007.76 1007.04 1006.43 1005.82 1005.25 1004.63 1003.94 1003.29 1002.60 1001.95 1001.30 1000.79 1000.15 999.82 999.37 998.71 998.44 997.65 997.33 996.71 996.14 995.74 995.14 994.58 994.48 994.22 994.30 994.34 994.50 994.65 994.91 995.08 995.29 995.51 995.72
1012.96 1012.76 1012.35 1011.88 1011.06 1010.05 1009.09 1008.13 1007.32 1006.63 1005.87 1005.21 1004.61 1003.97 1003.35 1002.68 1002.04 1001.40 1000.76 1000.17 999.77 999.21 998.77 998.29 997.72 997.33 996.74 996.18 995.63 995.09 994.59 994.22 993.81 993.39 993.45 993.35 993.40 993.59 993.90 994.14 994.34 994.70 994.85
Wind_Speed
12 10 7 7 6 5 5 4 5 4 6 6 6 6 5 5 5 4 5 5 6 6 6 6 9 8 6 5 6 6 7 7 8 5 3 1 4 5 5 7 5 6 5
7 6 6 6 5 6 4 3 1 1 0 2 3 3 2 3 3 4 6 6 5 6 7 5 7 4 7 7 4 7 6 7 6 11 4 3 5 3 5 5 5 6 6
6 7 9 8 7 7 6 6 6 4 3 3 3 3 5 4 4 5 5 6 6 6 6 5 5 4 6 5 3 5 7 8 9 6 5 3 4 4 4 3 4 4 4
9 8 8 6 6 6 5 5 3 1 1 4 5 5 5 6 6 6 6 5 4 4 5 5 5 5 6 5 6 8 6 5 6 5 4 4 3 4 2 2 4 2 5
9 8 6 6 6 6 5 4 3 1 3 4 5 7 7 6 6 6 6 6 6 6 6 5 6 7 9 8 5 8 6 5 4 6 8 3 4 2 3 3 6 9 4
7 6 6 5 4 4 4 4 4 4 4 4 5 6 7 7 12 13 11 6 6 6 6 6 6 8 8 12 11 13 10 7 7 7 9 9 12 7 3 4 4 3 4
5 3 4 4 5 5 3 2 3 3 2 3 5 6 7 9 13 16 16 9 7 6 7 6 6 5 8 6 7 14 13 14 19 11 12 11 11 7 8 8 5 4 4
9 7 6 5 4 3 2 1 2 3 4 4 6 7 7 8 13 15 17 12 7 8 7 8 7 7 7 8 7 6 8 9 12 12 11 10 11 8 10 9 8 6 4
10 8 8 7 7 6 6 5 4 3 4 5 6 8 8 10 13 15 13 11 10 9 8 7 8 8 10 14 9 9 8 8 8 14 15 15 13 13 10 4 6 5 5
9 8 7 7 7 7 6 6 3 3 5 5 8 9 11 11 14 16 14 8 10 8 6 7 12 12 14 12 9 9 10 11 6 6 5 8 11 10 12 9 7 8 5
7 8 8 8 7 6 6 4 4 5 6 7 9 9 9 10 12 15 17 10 9 8 7 6 4 10 12 11 8 7 10 10 9 8 6 5 5 5 5 6 8 9 7
7 8 9 9 8 8 7 6 7 7 7 8 9 8 6 7 11 13 15 13 10 6 7 4 3 4 7 8 7 10 14 12 7 6 5 5 5 6 5 5 7 8 9
7 6 6 7 7 7 6 8 8 8 8 8 8 7 7 7 7 13 15 9 5 3 3 6 7 8 8 6 10 12 7 4 5 5 6 7 6 6 5 4 6 8 10
5 6 6 6 7 8 5 5 6 7 7 7 8 9 9 8 6 5 5 5 7 5 5 4 5 8 9 9 6 6 5 5 6 6 7 7 4 3 5 4 4 4 6
5 6 6 5 6 7 8 8 10 11 8 10 10 10 10 10 10 10 12 12 8 6 5 3 3 4 5 5 6 7 6 5 7 8 7 7 6 5 7 4 6 4 8
4 4 5 7 8 8 9 10 11 15 17 17 17 14 11 13 16 15 13 12 10 7 3 4 4 5 7 8 7 7 7 9 8 8 8 8 8 7 7 5 6 7 8
4 6 6 8 9 9 10 11 13 12 14 16 16 17 18 15 15 14 13 11 12 5 5 6 7 8 9 9 8 8 9 9 10 8 9 9 8 8 7 7 7 7 9
5 10 5 8 9 10 10 11 11 13 11 12 11 11 7 11 13 14 14 8 9 6 5 7 9 9 9 9 9 10 10 9 8 9 9 9 8 8 7 8 8 9 9
4 4 7 9 10 11 11 11 11 13 12 12 13 11 10 11 12 15 18 9 8 7 8 8 9 10 9 8 9 9 10 10 10 9 9 9 9 8 8 8 8 10 10
3 10 11 8 9 10 10 11 12 12 13 12 12 13 9 8 7 10 11 8 8 8 8 9 9 10 9 9 9 9 9 10 10 9 7 8 8 7 8 9 9 9 8
3 4 12 7 9 10 10 11 11 11 12 12 12 13 20 7 8 11 10 9 9 9 10 10 10 10 9 9 9 9 9 9 10 9 9 8 9 9 9 9 9 8 8
3 4 6 8 9 11 11 11 10 10 11 12 12 12 15 9 10 9 10 11 10 10 10 10 7 9 10 10 10 10 10 10 10 9 9 9 9 9 9 8 9 9 9
4 5 6 8 10 15 11 10 10 10 11 11 12 11 10 9 10 10 10 10 9 10 8 8 9 10 10 10 10 11 10 11 10 9 10 10 9 9 9 9 10 9 9
5 5 6 9 10 12 11 12 11 12 11 11 11 10 10 10 10 11 11 9 10 10 7 9 9 12 9 11 10 9 10 11 10 10 12 9 9 10 9 9 9 10 8
5 5 6 9 11 12 13 12 11 11 10 10 10 10 10 11 11 11 10 10 10 9 11 10 10 11 14 17 15 18 15 15 14 12 7 9 10 10 8 8 8 8 9
5 6 6 8 10 11 11 12 12 11 11 10 10 10 10 10 10 11 11 11 10 10 12 10 11 17 17 14 16 18 15 18 14 16 10 8 7 7 7 9 11 8 8
Wind_Direction
178 181 175 169 177 169 169 174 180 184 185 199 220 237 245 259 266 263 258 249 245 253 239 234 235 218 222 200 188 202 215 195 237 283 252 281 287 271 289 270 204 220 220
162 145 136 110 106 115 89 93 143 95 86 223 219 223 268 295 282 277 288 295 272 268 267 256 251 252 246 230 189 185 231 230 228 253 231 241 238 328 269 290 264 233 199
83 108 94 108 100 101 105 85 73 65 19 347 345 329 320 307 293 275 266 270 273 266 271 276 268 253 255 253 237 196 193 231 233 240 270 203 236 212 254 271 282 268 262
86 82 89 102 111 115 115 116 121 120 347 324 316 311 303 300 296 290 278 278 281 278 278 266 270 266 265 255 208 204 219 211 218 205 253 270 215 231 185 258 303 300 258
81 96 116 139 143 147 141 141 148 203 279 287 304 311 311 309 293 277 274 266 267 272 271 254 248 254 253 256 247 235 185 217 233 242 244 241 243 219 202 207 223 254 268
121 140 156 160 166 175 185 191 191 229 254 267 289 294 298 298 291 282 273 250 251 252 264 265 245 243 256 267 247 242 201 191 232 233 245 235 241 231 204 194 217 227 273
143 174 205 204 215 233 244 245 255 248 218 262 278 282 277 281 280 284 280 271 246 240 243 252 259 251 240 259 244 234 246 233 227 238 229 229 240 220 222 225 210 192 206
24 1 347 338 312 311 280 244 254 241 258 267 273 269 269 279 276 278 282 284 254 239 238 238 240 244 240 246 251 231 225 224 229 230 237 236 232 230 207 217 211 209 232
22 12 10 12 7 358 345 322 303 290 292 282 272 272 265 272 270 272 277 284 273 251 243 233 238 247 241 232 244 250 247 245 233 226 228 232 235 237 218 197 218 183 241
9 1 359 8 5 351 343 329 301 284 270 273 277 272 264 271 277 273 272 272 270 267 251 230 237 245 252 235 232 240 249 252 242 240 230 241 245 246 233 218 238 219 196
359 0 358 350 335 323 326 310 302 298 287 279 277 273 271 270 275 273 271 268 259 264 263 265 245 242 253 267 231 232 240 253 241 230 229 237 246 233 233 211 217 226 224
6 6 352 342 335 332 326 317 319 309 298 292 290 280 262 270 276 281 277 266 253 233 247 258 274 292 290 287 284 237 236 250 245 224 216 230 235 241 237 220 213 224 236
5 341 324 319 319 317 317 318 312 309 304 300 294 288 288 284 279 276 271 225 184 190 206 210 223 271 276 281 266 269 260 205 215 220 229 237 230 239 219 224 230 237 245
332 314 297 308 318 318 305 294 287 290 291 298 301 298 299 289 277 292 291 272 272 248 257 260 251 249 252 252 268 263 244 227 218 226 237 241 222 219 231 206 235 208 239
346 318 315 304 294 303 302 303 304 300 291 295 296 295 299 297 293 301 296 295 281 273 298 261 245 235 248 258 256 256 247 229 225 232 238 239 230 222 240 209 230 221 243
324 307 298 313 309 301 300 302 279 258 259 259 258 257 278 264 270 281 298 296 280 261 224 232 238 235 245 252 248 255 250 243 231 224 223 228 229 225 235 224 230 235 244
302 296 301 308 309 306 308 305 303 297 257 264 270 269 264 265 285 285 286 288 272 224 232 240 242 245 246 240 239 242 249 247 241 223 218 222 219 223 222 226 230 236 247
308 298 294 315 316 310 306 301 299 298 307 306 280 267 292 305 305 303 299 285 285 211 235 241 245 243 239 235 236 242 251 255 245 233 228 224 221 223 224 232 235 238 239
320 313 331 325 319 312 308 304 305 303 297 295 300 279 275 280 297 293 285 270 266 275 264 244 246 246 245 238 237 241 244 250 251 242 232 229 225 218 229 240 242 234 228
317 333 333 322 322 312 306 310 308 307 304 296 300 291 295 285 291 295 286 281 274 275 279 273 264 257 253 250 244 238 242 245 249 243 230 223 222 222 234 239 237 240 233
269 290 316 308 321 317 308 302 301 301 299 296 294 294 294 275 289 286 280 279 274 276 275 268 265 261 256 256 250 244 243 241 240 240 243 231 228 228 228 236 240 233 233
253 280 293 320 315 313 303 297 295 293 294 294 293 296 299 294 281 274 283 276 269 269 266 263 269 266 250 254 255 250 243 241 240 237 230 230 232 228 226 224 232 235 236
251 273 295 317 315 312 306 299 297 293 291 292 292 292 292 288 283 279 281 282 282 285 285 287 292 287 278 273 255 249 242 245 244 234 226 229 227 224 224 226 227 229 229
252 278 292 306 313 313 307 304 302 296 293 292 293 290 288 284 284 282 280 284 280 276 289 285 272 282 301 296 288 259 248 248 237 237 229 224 224 225 221 217 219 224 226
256 280 288 304 310 313 312 310 309 305 301 298 296 295 295 292 287 284 284 281 282 288 284 284 284 285 294 287 291 294 285 258 245 235 227 236 224 217 215 215 216 222 218
261 273 283 295 306 313 313 313 311 310 308 304 295 288 288 290 289 288 287 287 288 286 292 284 285 285 287 288 288 285 302 292 271 246 230 224 220 209 202 210 215 217 219